SCP
0 0 0 0 -0 -0 -0 0 0 0 0 0 0 0 0 1 0 0 0 0 0 0 0 0 0 0 0 0 0 0 0 0 0 0 0 0 0 0 0 0 -0 0 0
0 0 0 -0 -0 -0 -0 0 0 0 0 0 0 0 0 0 0 0 0 1 0 0 0 0 0 0 0 0 0 0 0 0 0 0 0 0 0 0 0 -0 -0 0 0
0 0 0 -0 -0 -0 -0 -0 0 0 0 0 0 0 0 0 0 0 1 1 0 0 0 0 0 0 0 0 0 0 0 0 0 0 0 0 0 0 0 0 0 -0 -0
0 0 0 -0 -0 -1 -1 -0 -0 0 0 0 0 0 0 0 0 0 0 0 0 0 0 0 0 0 0 0 0 0 0 0 0 0 0 0 0 0 0 0 0 0 0
0 0 0 -0 -0 -0 -0 -0 -0 0 0 0 0 0 0 0 0 0 0 0 0 0 0 0 0 0 0 0 0 0 0 0 0 0 0 0 0 0 0 0 0 0 0
0 0 0 0 -0 0 0 0 0 -0 -0 0 0 0 0 0 0 0 0 0 0 0 0 0 0 0 0 0 0 0 0 0 0 0 0 0 0 0 0 0 0 0 0
0 1 0 0 0 0 0 0 0 -0 -0 -0 0 0 0 0 0 0 0 0 0 0 0 0 0 0 0 0 0 0 0 0 0 0 0 0 0 0 0 0 0 0 0
0 0 0 0 0 0 0 0 0 0 0 0 0 0 0 0 0 0 0 0 0 0 0 0 0 0 0 0 0 1 0 0 0 0 0 0 0 0 1 0 0 0 0
-0 0 0 0 0 0 0 1 0 0 -0 -0 0 0 0 1 1 1 1 1 0 0 0 0 0 0 0 0 0 1 1 0 0 0 0 0 0 0 0 0 0 0 0
0 0 0 0 0 0 -0 0 -0 -0 0 -0 0 0 0 1 1 1 1 1 1 0 0 1 1 1 0 0 0 0 0 0 0 0 0 0 0 0 0 1 0 0 0
-0 -0 -0 -0 0 0 -0 0 0 -0 0 -0 -0 0 0 1 1 1 1 1 0 0 0 0 0 0 0 0 0 0 0 1 1 0 0 0 0 0 0 1 1 1 1
0 0 0 0 0 0 0 0 -0 0 -0 -0 -0 0 0 0 1 1 1 1 1 1 0 0 0 0 0 1 1 0 1 1 0 0 0 0 0 0 0 0 1 1 1
-0 -0 -0 -0 -0 -0 0 0 0 0 0 0 0 -0 0 0 0 0 0 0 0 0 0 0 0 0 1 1 1 1 1 1 1 0 0 0 0 0 0 0 0 1 1
-0 -0 -0 -0 -0 -0 -0 0 0 0 0 0 0 0 0 0 -0 0 0 0 0 0 0 0 0 0 0 0 0 1 1 0 1 0 0 0 0 0 0 1 1 1 1
0 0 -0 -0 -0 -0 -0 -0 0 0 0 0 0 0 0 0 0 0 0 0 0 0 0 0 0 0 0 0 0 0 0 0 0 0 0 0 0 0 0 0 0 1 1
0 0 0 0 0 -0 -0 0 0 0 0 0 0 0 0 0 0 0 0 0 0 0 0 0 0 0 0 0 0 0 0 0 0 0 0 0 0 0 0 0 0 1 2
0 0 0 0 0 0 0 0 0 0 0 0 0 0 0 0 0 0 0 0 0 0 0 0 0 0 0 0 0 0 0 0 0 0 0 0 0 0 1 0 1 0 1
0 0 0 0 0 0 0 -0 0 0 -0 -0 0 0 0 0 0 0 0 0 0 0 0 0 0 0 0 0 0 0 0 0 0 0 0 0 0 0 0 0 0 2 1
0 0 0 0 0 0 0 -0 0 0 -0 -0 -0 -0 -0 0 0 0 0 0 0 0 0 0 0 0 0 0 0 0 0 0 0 0 0 0 0 0 0 0 0 0 1
0 0 0 0 0 0 0 0 0 0 -0 0 -0 -0 -0 -0 -0 -0 0 0 0 0 0 0 0 0 0 0 0 0 0 0 0 0 0 0 0 0 0 0 0 0 1
0 0 0 0 0 0 0 0 0 0 0 0 0 -0 -0 -0 -0 -0 -0 0 0 0 0 0 0 0 0 0 0 0 0 0 0 0 0 0 0 0 0 0 0 0 0
0 0 0 0 0 0 0 0 0 0 0 0 0 0 0 0 0 -0 -0 -0 0 0 0 0 0 0 0 0 0 0 0 0 0 0 0 0 0 0 0 0 0 0 0
0 0 0 0 0 0 0 0 0 0 0 0 0 0 0 0 0 0 0 0 0 0 0 0 0 0 0 0 0 0 0 0 0 0 0 0 0 0 0 0 0 0 0
0 0 0 0 0 0 0 0 0 0 0 0 0 0 0 0 0 0 0 0 0 0 0 0 0 0 0 0 0 0 0 0 0 0 0 0 0 0 0 0 0 0 0
0 0 0 0 0 0 0 0 0 0 0 0 0 0 0 0 0 0 0 0 0 0 0 0 0 0 0 0 0 0 0 0 0 0 0 0 0 0 0 0 0 0 0
0 0 0 0 0 0 0 0 0 0 0 0 0 0 0 0 0 0 0 0 0 0 0 0 0 0 0 0 0 0 0 0 0 0 0 0 0 0 0 0 0 0 0
Wind_Speed_500mb
32 30 27 24 23 22 24 24 26 27 27 26 23 22 24 30 33 33 30 27 24 26 28 35 43 44 38 28 24 28 32 27 20 12 19 25 27 25 22 22 18 24 24
36 31 27 23 22 22 20 18 18 19 19 20 21 23 23 22 23 23 24 23 25 27 30 37 43 42 38 27 22 24 29 24 17 13 16 22 21 18 16 14 12 17 18
30 28 23 21 22 23 22 18 14 14 14 15 18 20 19 20 20 20 21 23 25 26 31 39 42 39 35 26 23 23 24 23 18 17 20 20 21 19 13 10 7 9 11
25 23 18 17 17 19 19 15 12 10 10 11 12 13 14 16 17 16 16 18 20 23 29 37 40 35 32 26 22 22 24 26 22 23 23 20 20 18 17 16 11 8 8
24 19 19 17 15 13 12 11 10 8 7 9 11 13 15 16 17 15 15 17 19 21 26 34 39 38 35 31 28 25 24 28 28 26 25 22 19 24 17 25 24 17 12
24 21 18 18 18 17 16 13 9 6 8 14 17 16 17 18 18 18 17 17 18 20 23 29 35 38 39 37 33 30 28 29 30 28 27 30 29 28 27 21 35 29 19
15 20 18 18 18 16 15 12 6 6 8 14 18 21 21 21 23 24 23 22 22 22 24 27 31 36 39 40 39 36 34 34 35 34 34 33 33 34 32 25 37 37 31
14 15 15 21 20 16 15 14 8 3 5 12 18 22 24 24 26 28 29 29 27 26 26 28 32 34 37 38 39 39 39 40 41 39 38 37 35 37 39 29 33 44 40
15 15 14 11 13 13 16 16 13 6 8 15 20 24 26 27 29 31 32 33 32 32 33 34 36 39 40 42 43 43 43 43 44 43 42 42 41 40 42 40 32 40 47
14 17 21 7 1 12 9 16 9 10 15 24 25 22 25 27 30 31 32 33 33 36 38 38 40 42 44 46 47 47 48 48 51 49 49 48 47 45 47 49 43 42 52
4 5 10 24 4 17 9 11 13 9 19 24 18 21 34 36 34 33 31 35 36 38 41 43 43 42 44 46 49 50 52 56 57 56 53 52 49 48 53 54 55 50 45
32 37 40 44 17 16 23 30 13 15 23 30 38 56 60 52 44 38 36 35 39 40 43 44 44 44 44 47 49 52 57 60 61 60 59 55 50 46 49 57 64 63 56
53 50 58 49 37 22 8 18 21 28 32 39 39 40 35 31 32 40 29 32 39 42 55 56 44 51 50 47 46 46 47 55 64 66 65 60 47 43 43 47 64 69 69
64 56 52 43 45 42 38 36 33 33 30 31 30 28 26 24 39 30 32 41 40 36 52 67 54 53 54 51 51 51 48 47 46 48 57 56 50 43 47 51 48 64 67
47 46 45 38 30 31 33 31 32 28 25 29 36 34 30 28 32 33 38 40 43 46 42 42 54 57 48 45 50 52 57 55 50 46 45 40 42 40 39 37 49 57 62
41 45 39 37 35 36 30 25 21 24 25 21 23 23 23 24 22 23 25 28 27 31 39 38 40 51 50 48 51 54 47 56 64 60 56 55 48 52 52 49 54 55 69
34 32 34 31 22 20 21 26 23 21 22 23 30 22 22 23 23 24 23 23 27 30 33 35 34 40 56 62 64 63 60 66 54 61 57 53 61 66 61 62 69 79 65
24 26 29 29 30 33 31 38 33 30 36 39 44 44 40 35 34 35 34 31 31 40 42 38 32 36 40 45 55 62 72 77 77 83 63 64 68 73 69 66 68 63 63
9 26 28 30 32 31 31 35 22 32 47 43 45 55 56 52 49 47 42 36 31 28 34 44 39 37 38 41 43 45 42 47 69 64 80 81 84 80 85 81 79 72 62
14 28 21 26 25 28 30 23 17 27 25 34 42 52 61 60 59 57 54 51 46 32 28 32 32 34 34 34 41 42 36 39 41 56 62 70 74 80 75 78 72 66 69
17 22 15 8 8 15 20 22 29 34 36 40 48 51 53 53 54 57 54 45 42 44 37 30 31 33 32 28 33 36 33 30 38 43 48 58 61 57 57 51 54 56 59
18 13 12 11 6 11 17 28 33 38 42 43 43 44 44 49 50 49 49 45 38 31 35 34 31 29 29 24 28 26 20 18 17 35 37 33 28 34 38 42 43 47 51
12 9 7 10 13 23 30 39 43 37 36 41 43 44 43 46 50 48 45 44 40 33 28 27 30 29 30 30 25 19 13 11 11 21 21 24 28 29 30 33 32 28 33
18 14 14 19 27 38 47 46 45 41 43 36 36 39 42 46 47 48 47 47 46 36 26 28 26 26 27 31 31 25 24 26 13 17 23 18 23 31 32 33 40 40 42
21 22 27 33 41 47 46 44 43 44 40 37 37 41 48 50 49 39 46 43 44 38 26 23 24 14 8 17 17 14 12 15 20 20 25 12 22 27 30 31 31 36 36
28 29 37 44 43 36 38 41 41 40 38 41 44 49 50 52 52 46 40 40 39 40 37 30 24 22 18 7 15 9 8 6 12 14 20 25 20 17 22 24 20 21 19
Wind_Direction_500mb
164 160 145 148 151 148 141 137 136 138 147 152 154 154 147 144 147 150 159 166 174 173 177 178 177 171 164 153 155 160 164 156 149 123 142 150 150 148 143 131 126 119 109
152 139 140 146 149 145 141 139 137 137 135 140 143 147 149 151 157 163 170 173 172 175 178 178 178 177 176 170 166 169 179 177 180 182 169 159 159 157 151 144 115 130 119
134 132 134 140 145 148 153 148 145 145 142 140 148 152 153 157 159 163 171 175 179 181 181 181 182 183 186 187 185 184 188 194 201 195 182 168 172 179 185 189 146 139 140
113 114 121 132 142 156 161 156 152 153 155 157 156 160 157 165 170 176 183 188 190 191 189 189 190 192 192 195 196 198 205 205 206 202 193 186 186 194 219 233 215 187 182
98 107 113 110 108 115 137 157 172 162 173 186 182 183 187 187 190 192 196 201 204 203 199 199 201 203 206 206 208 207 203 204 205 203 208 206 208 214 233 250 236 222 217
125 122 118 116 104 97 91 88 122 178 181 193 201 204 209 214 215 217 219 220 218 214 211 210 209 211 215 217 216 214 211 208 210 215 212 214 218 222 246 262 236 233 233
151 137 129 114 106 103 96 92 101 197 200 204 208 214 221 229 231 233 235 235 233 229 224 223 221 221 221 223 224 223 224 225 225 229 231 229 229 231 232 250 243 240 235
184 127 117 118 112 101 112 114 86 85 203 215 219 222 225 232 237 235 239 245 247 245 243 239 237 236 234 233 231 231 233 236 238 239 238 237 238 238 231 242 247 243 238
105 81 98 98 104 130 140 143 152 173 236 242 243 242 240 240 242 245 246 243 248 252 250 248 246 244 243 244 243 240 240 242 245 245 246 246 244 244 242 245 244 237 239
117 60 69 12 154 193 162 133 144 195 222 229 239 250 254 254 254 256 260 261 258 258 259 258 255 252 251 249 250 251 251 250 249 248 249 250 249 246 246 246 244 242 242
101 271 304 18 247 201 153 142 195 235 262 271 276 295 286 263 248 252 255 261 266 265 266 266 263 259 257 256 257 258 258 256 255 255 254 255 256 252 246 247 245 242 241
91 76 63 57 26 152 157 353 259 354 301 286 281 295 300 254 246 245 253 258 260 256 261 260 261 260 258 255 257 260 259 261 261 261 261 261 261 260 254 250 249 247 243
79 78 78 79 69 153 68 61 36 29 360 326 306 325 306 248 258 248 251 276 275 273 267 256 260 262 260 260 262 266 267 267 265 264 263 261 260 254 257 258 251 246 246
79 75 68 71 67 62 51 40 22 12 2 358 1 334 327 292 305 300 273 286 286 281 267 261 260 262 259 258 257 256 264 266 268 267 265 256 247 251 261 264 260 245 242
75 82 81 72 73 66 54 46 25 5 353 0 7 358 347 334 335 320 305 301 296 284 262 249 256 256 248 255 255 258 259 257 256 253 265 252 252 264 258 248 253 255 246
97 92 89 79 79 73 66 50 39 25 10 0 355 1 8 359 351 340 337 329 326 316 286 259 269 256 255 253 254 260 264 261 249 248 252 256 252 258 263 260 263 268 256
94 91 71 59 46 51 44 28 10 16 7 16 12 354 348 353 352 332 325 317 314 313 315 302 289 280 268 263 263 261 261 266 257 251 250 253 259 259 256 257 265 264 262
100 46 41 38 30 27 35 19 12 6 347 338 331 336 331 333 332 334 327 315 306 304 304 296 301 290 282 273 271 271 262 258 254 248 247 254 256 259 261 263 270 258 260
69 45 48 47 31 23 18 11 20 8 353 340 322 333 330 325 321 319 319 314 304 291 291 295 291 297 293 284 278 278 272 265 259 254 242 255 257 258 256 264 266 265 260
53 44 48 52 22 360 6 354 8 339 334 331 330 326 321 319 318 314 307 303 295 294 285 281 291 295 299 289 285 283 281 270 265 254 254 259 262 262 265 266 259 255 266
60 41 78 44 31 360 348 347 345 348 339 332 330 327 325 326 328 330 329 318 296 286 289 294 290 294 293 310 297 283 286 271 261 261 260 253 259 264 269 271 268 264 265
60 110 118 96 56 12 8 349 349 342 338 336 341 345 342 338 338 343 346 345 340 320 284 280 282 287 282 304 315 299 300 290 264 250 254 268 257 268 257 262 269 262 260
97 98 82 67 36 16 1 354 356 355 350 351 351 347 351 349 348 350 354 356 355 352 346 305 289 285 291 289 300 274 263 244 259 266 257 264 263 272 275 266 264 258 266
97 90 63 33 15 7 4 11 16 22 15 10 0 356 355 349 347 351 353 356 359 8 2 346 308 291 281 288 292 275 250 252 255 283 278 269 277 270 262 267 260 258 265
81 52 30 18 14 13 15 21 16 16 23 11 8 2 357 350 347 344 350 351 359 6 359 348 352 318 300 274 288 279 280 263 253 250 279 283 295 289 278 275 276 268 268
54 30 18 7 8 18 19 17 18 14 14 9 11 5 3 358 354 352 351 352 359 5 5 359 353 340 334 273 261 275 297 277 243 262 268 279 289 294 296 305 290 280 280
Wind_Speed_850mb
32 30 27 24 23 22 24 24 26 27 27 26 23 22 24 30 33 33 30 27 24 26 28 35 43 44 38 28 24 28 32 27 20 12 19 25 27 25 22 22 18 24 24
36 31 27 23 22 22 20 18 18 19 19 20 21 23 23 22 23 23 24 23 25 27 30 37 43 42 38 27 22 24 29 24 17 13 16 22 21 18 16 14 12 17 18
30 28 23 21 22 23 22 18 14 14 14 15 18 20 19 20 20 20 21 23 25 26 31 39 42 39 35 26 23 23 24 23 18 17 20 20 21 19 13 10 7 9 11
25 23 18 17 17 19 19 15 12 10 10 11 12 13 14 16 17 16 16 18 20 23 29 37 40 35 32 26 22 22 24 26 22 23 23 20 20 18 17 16 11 8 8
24 19 19 17 15 13 12 11 10 8 7 9 11 13 15 16 17 15 15 17 19 21 26 34 39 38 35 31 28 25 24 28 28 26 25 22 19 24 17 25 24 17 12
24 21 18 18 18 17 16 13 9 6 8 14 17 16 17 18 18 18 17 17 18 20 23 29 35 38 39 37 33 30 28 29 30 28 27 30 29 28 27 21 35 29 19
15 20 18 18 18 16 15 12 6 6 8 14 18 21 21 21 23 24 23 22 22 22 24 27 31 36 39 40 39 36 34 34 35 34 34 33 33 34 32 25 37 37 31
14 15 15 21 20 16 15 14 8 3 5 12 18 22 24 24 26 28 29 29 27 26 26 28 32 34 37 38 39 39 39 40 41 39 38 37 35 37 39 29 33 44 40
15 15 14 11 13 13 16 16 13 6 8 15 20 24 26 27 29 31 32 33 32 32 33 34 36 39 40 42 43 43 43 43 44 43 42 42 41 40 42 40 32 40 47
14 17 21 7 1 12 9 16 9 10 15 24 25 22 25 27 30 31 32 33 33 36 38 38 40 42 44 46 47 47 48 48 51 49 49 48 47 45 47 49 43 42 52
4 5 10 24 4 17 9 11 13 9 19 24 18 21 34 36 34 33 31 35 36 38 41 43 43 42 44 46 49 50 52 56 57 56 53 52 49 48 53 54 55 50 45
32 37 40 44 17 16 23 30 13 15 23 30 38 56 60 52 44 38 36 35 39 40 43 44 44 44 44 47 49 52 57 60 61 60 59 55 50 46 49 57 64 63 56
53 50 58 49 37 22 8 18 21 28 32 39 39 40 35 31 32 40 29 32 39 42 55 56 44 51 50 47 46 46 47 55 64 66 65 60 47 43 43 47 64 69 69
64 56 52 43 45 42 38 36 33 33 30 31 30 28 26 24 39 30 32 41 40 36 52 67 54 53 54 51 51 51 48 47 46 48 57 56 50 43 47 51 48 64 67
47 46 45 38 30 31 33 31 32 28 25 29 36 34 30 28 32 33 38 40 43 46 42 42 54 57 48 45 50 52 57 55 50 46 45 40 42 40 39 37 49 57 62
41 45 39 37 35 36 30 25 21 24 25 21 23 23 23 24 22 23 25 28 27 31 39 38 40 51 50 48 51 54 47 56 64 60 56 55 48 52 52 49 54 55 69
34 32 34 31 22 20 21 26 23 21 22 23 30 22 22 23 23 24 23 23 27 30 33 35 34 40 56 62 64 63 60 66 54 61 57 53 61 66 61 62 69 79 65
24 26 29 29 30 33 31 38 33 30 36 39 44 44 40 35 34 35 34 31 31 40 42 38 32 36 40 45 55 62 72 77 77 83 63 64 68 73 69 66 68 63 63
9 26 28 30 32 31 31 35 22 32 47 43 45 55 56 52 49 47 42 36 31 28 34 44 39 37 38 41 43 45 42 47 69 64 80 81 84 80 85 81 79 72 62
14 28 21 26 25 28 30 23 17 27 25 34 42 52 61 60 59 57 54 51 46 32 28 32 32 34 34 34 41 42 36 39 41 56 62 70 74 80 75 78 72 66 69
17 22 15 8 8 15 20 22 29 34 36 40 48 51 53 53 54 57 54 45 42 44 37 30 31 33 32 28 33 36 33 30 38 43 48 58 61 57 57 51 54 56 59
18 13 12 11 6 11 17 28 33 38 42 43 43 44 44 49 50 49 49 45 38 31 35 34 31 29 29 24 28 26 20 18 17 35 37 33 28 34 38 42 43 47 51
12 9 7 10 13 23 30 39 43 37 36 41 43 44 43 46 50 48 45 44 40 33 28 27 30 29 30 30 25 19 13 11 11 21 21 24 28 29 30 33 32 28 33
18 14 14 19 27 38 47 46 45 41 43 36 36 39 42 46 47 48 47 47 46 36 26 28 26 26 27 31 31 25 24 26 13 17 23 18 23 31 32 33 40 40 42
21 22 27 33 41 47 46 44 43 44 40 37 37 41 48 50 49 39 46 43 44 38 26 23 24 14 8 17 17 14 12 15 20 20 25 12 22 27 30 31 31 36 36
28 29 37 44 43 36 38 41 41 40 38 41 44 49 50 52 52 46 40 40 39 40 37 30 24 22 18 7 15 9 8 6 12 14 20 25 20 17 22 24 20 21 19
Wind_Direction_850mb
164 160 145 148 151 148 141 137 136 138 147 152 154 154 147 144 147 150 159 166 174 173 177 178 177 171 164 153 155 160 164 156 149 123 142 150 150 148 143 131 126 119 109
152 139 140 146 149 145 141 139 137 137 135 140 143 147 149 151 157 163 170 173 172 175 178 178 178 177 176 170 166 169 179 177 180 182 169 159 159 157 151 144 115 130 119
134 132 134 140 145 148 153 148 145 145 142 140 148 152 153 157 159 163 171 175 179 181 181 181 182 183 186 187 185 184 188 194 201 195 182 168 172 179 185 189 146 139 140
113 114 121 132 142 156 161 156 152 153 155 157 156 160 157 165 170 176 183 188 190 191 189 189 190 192 192 195 196 198 205 205 206 202 193 186 186 194 219 233 215 187 182
98 107 113 110 108 115 137 157 172 162 173 186 182 183 187 187 190 192 196 201 204 203 199 199 201 203 206 206 208 207 203 204 205 203 208 206 208 214 233 250 236 222 217
125 122 118 116 104 97 91 88 122 178 181 193 201 204 209 214 215 217 219 220 218 214 211 210 209 211 215 217 216 214 211 208 210 215 212 214 218 222 246 262 236 233 233
151 137 129 114 106 103 96 92 101 197 200 204 208 214 221 229 231 233 235 235 233 229 224 223 221 221 221 223 224 223 224 225 225 229 231 229 229 231 232 250 243 240 235
184 127 117 118 112 101 112 114 86 85 203 215 219 222 225 232 237 235 239 245 247 245 243 239 237 236 234 233 231 231 233 236 238 239 238 237 238 238 231 242 247 243 238
105 81 98 98 104 130 140 143 152 173 236 242 243 242 240 240 242 245 246 243 248 252 250 248 246 244 243 244 243 240 240 242 245 245 246 246 244 244 242 245 244 237 239
117 60 69 12 154 193 162 133 144 195 222 229 239 250 254 254 254 256 260 261 258 258 259 258 255 252 251 249 250 251 251 250 249 248 249 250 249 246 246 246 244 242 242
101 271 304 18 247 201 153 142 195 235 262 271 276 295 286 263 248 252 255 261 266 265 266 266 263 259 257 256 257 258 258 256 255 255 254 255 256 252 246 247 245 242 241
91 76 63 57 26 152 157 353 259 354 301 286 281 295 300 254 246 245 253 258 260 256 261 260 261 260 258 255 257 260 259 261 261 261 261 261 261 260 254 250 249 247 243
79 78 78 79 69 153 68 61 36 29 360 326 306 325 306 248 258 248 251 276 275 273 267 256 260 262 260 260 262 266 267 267 265 264 263 261 260 254 257 258 251 246 246
79 75 68 71 67 62 51 40 22 12 2 358 1 334 327 292 305 300 273 286 286 281 267 261 260 262 259 258 257 256 264 266 268 267 265 256 247 251 261 264 260 245 242
75 82 81 72 73 66 54 46 25 5 353 0 7 358 347 334 335 320 305 301 296 284 262 249 256 256 248 255 255 258 259 257 256 253 265 252 252 264 258 248 253 255 246
97 92 89 79 79 73 66 50 39 25 10 0 355 1 8 359 351 340 337 329 326 316 286 259 269 256 255 253 254 260 264 261 249 248 252 256 252 258 263 260 263 268 256
94 91 71 59 46 51 44 28 10 16 7 16 12 354 348 353 352 332 325 317 314 313 315 302 289 280 268 263 263 261 261 266 257 251 250 253 259 259 256 257 265 264 262
100 46 41 38 30 27 35 19 12 6 347 338 331 336 331 333 332 334 327 315 306 304 304 296 301 290 282 273 271 271 262 258 254 248 247 254 256 259 261 263 270 258 260
69 45 48 47 31 23 18 11 20 8 353 340 322 333 330 325 321 319 319 314 304 291 291 295 291 297 293 284 278 278 272 265 259 254 242 255 257 258 256 264 266 265 260
53 44 48 52 22 360 6 354 8 339 334 331 330 326 321 319 318 314 307 303 295 294 285 281 291 295 299 289 285 283 281 270 265 254 254 259 262 262 265 266 259 255 266
60 41 78 44 31 360 348 347 345 348 339 332 330 327 325 326 328 330 329 318 296 286 289 294 290 294 293 310 297 283 286 271 261 261 260 253 259 264 269 271 268 264 265
60 110 118 96 56 12 8 349 349 342 338 336 341 345 342 338 338 343 346 345 340 320 284 280 282 287 282 304 315 299 300 290 264 250 254 268 257 268 257 262 269 262 260
97 98 82 67 36 16 1 354 356 355 350 351 351 347 351 349 348 350 354 356 355 352 346 305 289 285 291 289 300 274 263 244 259 266 257 264 263 272 275 266 264 258 266
97 90 63 33 15 7 4 11 16 22 15 10 0 356 355 349 347 351 353 356 359 8 2 346 308 291 281 288 292 275 250 252 255 283 278 269 277 270 262 267 260 258 265
81 52 30 18 14 13 15 21 16 16 23 11 8 2 357 350 347 344 350 351 359 6 359 348 352 318 300 274 288 279 280 263 253 250 279 283 295 289 278 275 276 268 268
54 30 18 7 8 18 19 17 18 14 14 9 11 5 3 358 354 352 351 352 359 5 5 359 353 340 334 273 261 275 297 277 243 262 268 279 289 294 296 305 290 280 280